• In Netherlands
  • List of Countries
  • For 7 days
  • Water Temperature
  • Satellite Maps
  • Weather Map
  • Weather Widgets
  • user-avatar
    Login

    Hourly Weather Djelfa

    Today, 19 January, Thursday

    Time Temperature Precipitation Wind Pressure Humidity
    00:00 -1°C° 0 mm 5 mps 661 mmHg 51%
    01:00 -1°C° 0 mm 5 mps 661 mmHg 54%
    02:00 -1°C° 0 mm 5 mps 660 mmHg 58%
    03:00 -1°C° 0 mm 5 mps 660 mmHg 61%
    04:00 -2°C° 0 mm 5 mps 661 mmHg 63%
    05:00 -2°C° 0 mm 5 mps 661 mmHg 65%
    06:00 -2°C° 0 mm 5 mps 661 mmHg 66%
    07:00 -2°C° 0 mm 6 mps 661 mmHg 63%
    08:00 -1°C° 0 mm 7 mps 661 mmHg 60%
    09:00 0°C° 0 mm 7 mps 662 mmHg 57%
    10:00 +1°C° 0 mm 8 mps 662 mmHg 53%
    11:00 +2°C° 0 mm 8 mps 661 mmHg 50%
    12:00 +3°C° 0 mm 9 mps 661 mmHg 47%
    13:00 +3°C° 0 mm 9 mps 661 mmHg 46%
    14:00 +3°C° 0 mm 9 mps 661 mmHg 46%
    15:00 +3°C° 0 mm 9 mps 661 mmHg 45%
    16:00 +2°C° 0 mm 9 mps 660 mmHg 48%
    17:00 +1°C° 0 mm 8 mps 660 mmHg 51%
    18:00 0°C° 0 mm 7 mps 660 mmHg 53%
    19:00 0°C° 0 mm 7 mps 661 mmHg 55%
    20:00 -1°C° 0 mm 7 mps 661 mmHg 56%
    21:00 -1°C° 0 mm 7 mps 661 mmHg 57%
    22:00 -1°C° 0 mm 6 mps 661 mmHg 58%
    23:00 -1°C° 0 mm 6 mps 661 mmHg 60%

    Tomorrow, 20 January, Friday

    Time Temperature Precipitation Wind Pressure Humidity
    00:00 -2°C° 0 mm 6 mps 661 mmHg 61%
    01:00 -1°C° 0 mm 5 mps 661 mmHg 61%
    02:00 -1°C° 0 mm 5 mps 660 mmHg 62%
    03:00 -1°C° 0 mm 5 mps 660 mmHg 63%
    04:00 -1°C° 0 mm 5 mps 660 mmHg 64%
    05:00 -3°C° 0 mm 6 mps 660 mmHg 64%
    06:00 -3°C° 0 mm 6 mps 659 mmHg 65%
    07:00 -2°C° 0 mm 7 mps 659 mmHg 65%
    08:00 -1°C° 0 mm 8 mps 659 mmHg 64%
    09:00 0°C° 0 mm 9 mps 659 mmHg 64%
    10:00 0°C° 0 mm 9 mps 659 mmHg 64%
    11:00 +1°C° 0 mm 9 mps 658 mmHg 64%
    12:00 +2°C° 0 mm 9 mps 658 mmHg 64%
    13:00 +2°C° 0.1 mm 9 mps 657 mmHg 66%
    14:00 +2°C° 0.1 mm 9 mps 657 mmHg 67%
    15:00 +2°C° 0.1 mm 8 mps 656 mmHg 69%
    16:00 +2°C° 0.9 mm 7 mps 656 mmHg 73%
    17:00 +2°C° 0.9 mm 6 mps 656 mmHg 77%
    18:00 +1°C° 0.9 mm 5 mps 655 mmHg 81%
    19:00 +1°C° 1 mm 4 mps 655 mmHg 83%
    20:00 0°C° 1 mm 4 mps 655 mmHg 84%
    21:00 +1°C° 1 mm 3 mps 655 mmHg 86%
    22:00 +1°C° 0.9 mm 3 mps 655 mmHg 87%
    23:00 -1°C° 0.9 mm 4 mps 655 mmHg 88%

    Day after tomorrow, 21 January, Saturday

    Time Temperature Precipitation Wind Pressure Humidity
    00:00 -1°C° 0.9 mm 4 mps 655 mmHg 90%
    01:00 -1°C° 0.5 mm 5 mps 655 mmHg 90%
    02:00 -1°C° 0.5 mm 5 mps 655 mmHg 91%
    03:00 -2°C° 0.5 mm 6 mps 655 mmHg 91%
    04:00 -2°C° 0.3 mm 7 mps 655 mmHg 91%
    05:00 -2°C° 0.3 mm 7 mps 655 mmHg 91%
    06:00 -2°C° 0.3 mm 7 mps 655 mmHg 91%
    07:00 -2°C° 0 mm 8 mps 656 mmHg 89%
    08:00 -1°C° 0 mm 8 mps 656 mmHg 87%
    09:00 -1°C° 0 mm 8 mps 656 mmHg 85%
    10:00 0°C° 0.1 mm 9 mps 656 mmHg 83%
    11:00 0°C° 0.1 mm 10 mps 656 mmHg 81%
    12:00 +1°C° 0.1 mm 10 mps 656 mmHg 79%
    13:00 -1°C° 0.6 mm 11 mps 656 mmHg 79%
    14:00 -1°C° 0.6 mm 11 mps 656 mmHg 79%
    15:00 -1°C° 0.6 mm 11 mps 655 mmHg 79%
    16:00 -1°C° 0.5 mm 11 mps 656 mmHg 81%
    17:00 -2°C° 0.5 mm 10 mps 656 mmHg 83%
    18:00 -2°C° 0.5 mm 10 mps 656 mmHg 85%
    19:00 -1°C° 0.2 mm 9 mps 656 mmHg 86%
    20:00 -1°C° 0.2 mm 8 mps 656 mmHg 87%
    21:00 -1°C° 0.2 mm 8 mps 656 mmHg 88%
    22:00 -2°C° 0 mm 7 mps 656 mmHg 89%
    23:00 -2°C° 0 mm 6 mps 656 mmHg 90%

    22 January, Sunday

    Time Temperature Precipitation Wind Pressure Humidity
    00:00 -1°C° 0 mm 5 mps 656 mmHg 91%
    01:00 -1°C° 0 mm 5 mps 656 mmHg 91%
    02:00 -1°C° 0 mm 5 mps 655 mmHg 91%
    03:00 -1°C° 0 mm 4 mps 655 mmHg 91%
    04:00 -1°C° 0.2 mm 4 mps 655 mmHg 91%
    05:00 -1°C° 0.2 mm 4 mps 655 mmHg 92%
    06:00 -1°C° 0.2 mm 4 mps 655 mmHg 93%
    07:00 0°C° 0.1 mm 5 mps 656 mmHg 92%
    08:00 -1°C° 0.1 mm 6 mps 656 mmHg 90%
    09:00 0°C° 0.1 mm 7 mps 656 mmHg 89%
    10:00 0°C° 0.2 mm 8 mps 657 mmHg 86%
    11:00 +1°C° 0.2 mm 9 mps 657 mmHg 82%
    12:00 +2°C° 0.2 mm 9 mps 657 mmHg 78%
    13:00 +2°C° 0.3 mm 9 mps 657 mmHg 77%
    14:00 +2°C° 0.3 mm 9 mps 657 mmHg 76%
    15:00 +2°C° 0.3 mm 9 mps 657 mmHg 75%
    16:00 +1°C° 0.2 mm 9 mps 657 mmHg 79%
    17:00 +1°C° 0.2 mm 8 mps 658 mmHg 84%
    18:00 0°C° 0.2 mm 7 mps 658 mmHg 88%
    19:00 0°C° 0.1 mm 8 mps 659 mmHg 89%
    20:00 0°C° 0.1 mm 8 mps 659 mmHg 89%
    21:00 0°C° 0.1 mm 8 mps 660 mmHg 90%
    22:00 0°C° 0.1 mm 8 mps 660 mmHg 90%
    23:00 0°C° 0.1 mm 8 mps 660 mmHg 90%

    23 January, Monday

    Time Temperature Precipitation Wind Pressure Humidity
    00:00 0°C° 0.1 mm 8 mps 660 mmHg 90%
    01:00 0°C° 0.1 mm 9 mps 660 mmHg 89%
    02:00 -1°C° 0.1 mm 9 mps 660 mmHg 88%
    03:00 -1°C° 0.1 mm 9 mps 660 mmHg 87%
    04:00 -1°C° 0 mm 9 mps 660 mmHg 87%
    05:00 -1°C° 0 mm 9 mps 661 mmHg 87%
    06:00 -3°C° 0 mm 9 mps 661 mmHg 87%
    07:00 -1°C° 0 mm 9 mps 661 mmHg 85%
    08:00 -1°C° 0 mm 9 mps 662 mmHg 82%
    09:00 -2°C° 0 mm 10 mps 662 mmHg 79%
    10:00 0°C° 0 mm 10 mps 662 mmHg 74%
    11:00 +1°C° 0 mm 10 mps 662 mmHg 69%
    12:00 +2°C° 0 mm 10 mps 662 mmHg 64%
    13:00 +2°C° 0 mm 9 mps 662 mmHg 63%
    14:00 +2°C° 0 mm 9 mps 662 mmHg 62%
    15:00 +3°C° 0 mm 9 mps 662 mmHg 61%
    16:00 +2°C° 0 mm 8 mps 662 mmHg 66%
    17:00 +2°C° 0 mm 7 mps 662 mmHg 72%
    18:00 +1°C° 0 mm 6 mps 662 mmHg 77%
    19:00 -1°C° 0 mm 6 mps 663 mmHg 81%
    20:00 -1°C° 0 mm 6 mps 663 mmHg 85%
    21:00 0°C° 0 mm 5 mps 663 mmHg 88%
    22:00 -2°C° 0 mm 6 mps 663 mmHg 89%
    23:00 -2°C° 0 mm 6 mps 663 mmHg 90%

    24 January, Tuesday

    Time Temperature Precipitation Wind Pressure Humidity
    00:00 -2°C° 0 mm 6 mps 663 mmHg 90%
    01:00 -2°C° 0 mm 7 mps 663 mmHg 90%
    02:00 -2°C° 0 mm 7 mps 662 mmHg 90%
    03:00 -3°C° 0 mm 7 mps 662 mmHg 90%
    04:00 -3°C° 0 mm 7 mps 662 mmHg 90%
    05:00 -3°C° 0 mm 7 mps 662 mmHg 90%
    06:00 -4°C° 0 mm 8 mps 663 mmHg 90%
    07:00 -2°C° 0.1 mm 8 mps 663 mmHg 87%
    08:00 -1°C° 0.1 mm 9 mps 664 mmHg 84%
    09:00 0°C° 0.1 mm 10 mps 664 mmHg 82%
    10:00 0°C° 0 mm 10 mps 664 mmHg 78%
    11:00 +1°C° 0 mm 9 mps 664 mmHg 75%
    12:00 +2°C° 0 mm 9 mps 664 mmHg 72%
    13:00 +2°C° 0 mm 8 mps 664 mmHg 70%
    14:00 +2°C° 0 mm 8 mps 664 mmHg 68%
    15:00 +2°C° 0 mm 8 mps 664 mmHg 66%
    16:00 +3°C° 0 mm 7 mps 664 mmHg 71%
    17:00 +2°C° 0 mm 6 mps 664 mmHg 75%
    18:00 +1°C° 0 mm 5 mps 665 mmHg 80%
    19:00 +1°C° 0 mm 5 mps 665 mmHg 83%
    20:00 -1°C° 0 mm 6 mps 665 mmHg 86%
    21:00 -1°C° 0 mm 6 mps 666 mmHg 89%
    22:00 -1°C° 0 mm 6 mps 666 mmHg 89%
    23:00 -1°C° 0 mm 6 mps 666 mmHg 90%
    Show more